ATLAS 5 CENTAUR DEB, 46852

Orbit data source: Space-Track

ATLAS 5 CENTAUR DEB, 46852 is space debris in HEO originally from a launch on Wed, 17 Oct 2018 UTC launched from the Air Force Eastern Test Range (AFETR). Debris objects in space refer to the collection of defunct objects orbiting the Earth. Examples of debris include non-operational satellites, rocket bodies, and fragments generated from explosions, collisions, or faulty payload assembly.

Loading next visibility...
Identifier
46852, 2018-079DH
Orbit
HEO
Country
Flag of USUS
Related business
Flag of USUnited Launch Alliance/Lockheed Martin (US)
Manufacturer
ULA Decatur
Mission
Spacecraft
Bus & Motor
Unknown
Mass
Unknown
Launch date (UTC)
2018-10-17 (8 years ago)
Launch vehicle
Unknown
Launch site
Air Force Eastern Test Range (AFETR)
Object type
Payload
Rocket body
Debris
Shape & HBR
Unknown shape, 1.1 m
Radar Cross Section
RCS unknown

Expand to show TLE details & history
Last TLE update: 3 weeks ago

TLE from 3 weeks ago
0 ATLAS 5 CENTAUR DEB
1 46852U 18079DH  26200.73424956 -.00000120  00000-0  00000-0 0  9994
2 46852  14.3418  21.1850 4740989 341.2734   5.8573  1.80620819 26393
Epoch: 2026-07-19T17:37Z
TLE epoch observation values (Epoch: 2026-07-19T17:37:19.161Z)
Latitude
0.00012°
Longitude
179.34365°
Altitude
8,880.381 km
Speed
6.185 km/s
True Right ascension
01h 24m 48s
True Declination
0° 00' 00"
Sunlit
Object was in daylight at epoch
Visualization orbit readout
Latitude
Unknown
Longitude
Unknown
Altitude
Unknown
Speed
Unknown
Apparent Right ascension
Unknown
Apparent Declination
Unknown
Sunlit
N/A
Visualization observer readout
Local Sidereal Time
20:46:08
Azimuth
Unknown
Elevation
Unknown
Doppler factor
Unknown
Orbital elements
Apogee altitude
35,608.867 km
Perigee altitude
8,601.192 km
Semi-major axis
28,483.167 km
Eccentricity
0.4741
Inclination
14.3418°
RAAN
21.185°
Arg. of periapsis
341.2734°
True anomaly
18.44003°
Mean anomaly
5.8573°
Eccentric anomaly
11.07558°
Mean motion
0.4515 °/min
Orbital period
797.34 mins
BSTAR
0
Loading maneuver chart data...
Computing Atmospheric mass density...

Documentation

Showing up to 5 results
|